Weather in Dar es Salaam

Tanzania     6˚46′39″S   39˚13′57″E
temp.,
°C
wind,
m/s
gust,
m/s
humid.,
%
clouds,
%
prec.,
mm/h
press.,
hPa
HPBL,
m
3 december, thu
thu300:00+27˚ne587591 0.6 1011942
03:00+27˚nne477696 1.4 1011862
06:00+27˚ne357650 0.3 1012789
09:00+29˚ne456626 0.4 1014999
12:00+31˚ene56591 0.3 10131088
15:00+30˚ene676010 0.4 10101076
18:00+28˚ene567093 0.1 1010960
21:00+27˚ne467469 0.2 1012815
4 december, fri
fri400:00+27˚ne467528 0.0 1012842
03:00+27˚ne247642 0.1 1011705
06:00+26˚ene24773 0.9 1012500
09:00+29˚ne34653 1.1 1014937
12:00+31˚ene445517 0.0 1013985
15:00+31˚ene555746 0.0 1010938
18:00+29˚e45671 0.0 1010847
21:00+28˚ene357010 0.0 1013834
5 december, sat
sat500:00+27˚ene247266 0.0 1012778
03:00+27˚ene237333 0.0 1011660
06:00+26˚ene12737 0.0 1012220
09:00+30˚ne336013 0.0 1014955
12:00+32˚ne33500 0.0 10121029
15:00+31˚ne44560 0.0 1009767
18:00+29˚ene45660 0.0 1009557
21:00+27˚ne35710 0.0 1012515
6 december, sun
sun600:00+27˚ne23730 0.0 1012539
03:00+26˚nne23740 0.0 1011571
06:00+26˚n23760 0.0 1013389
09:00+29˚nne34630 0.0 1014749
12:00+32˚ne32490 0.0 10121022
15:00+31˚ene44530 0.0 1009692
18:00+28˚e46650 0.0 1009607
21:00+27˚e46710 0.0 1011627
7 december, mon
mon700:00+27˚e35730 0.0 1011532
03:00+26˚ese13730 0.0 1011464
06:00+26˚s11740 0.0 101361
09:00+30˚ne12560 0.0 1014860
12:00+32˚ne32470 0.0 1013981
15:00+32˚e43470 0.0 1010660
18:00+29˚ese56630 0.0 1010587
21:00+28˚ese46730 0.0 1012613